DW1107 Weather Reports


Display with metric or nautical units.
time (UTC)temp
F
wind
direction
speed
MPH
gust
MPH
rain 1hr
in
rain 24hr
in
rain mn
in
humidity
%
barometer
mb
20260505001555 0 196 6.0 15.0 0.00 0.00 0.00 1006.3
20260505000057 0 11 7.0 19.0 0.00 0.00 0.00 1005.8
20260504234552 0 208 6.0 18.0 0.00 0.00 0.00 1005.5
20260504233100 0 89 5.0 14.0 0.00 0.00 0.00 1005.5
20260504231554 0 190 5.0 12.0 0.00 0.00 0.00 1005.2
20260504230052 0 208 4.0 14.0 0.00 0.00 0.00 1005.3
20260504224553 0 277 4.0 17.0 0.00 0.00 0.00 1005.1
20260504223055 53 274 6.0 16.0 0.00 0.00 0.00 66 1004.9
20260504221604 53 194 6.0 16.0 0.00 0.00 0.00 66 1004.9
20260504220122 53 203 8.0 20.0 0.00 0.00 0.00 66 1004.7
20260504214551 54 277 9.0 20.0 0.00 0.00 0.00 65 1004.8
20260504213113 53 230 6.0 19.0 0.00 0.00 0.00 66 1005.0
20260504211550 53 189 10.0 19.0 0.00 0.00 0.00 65 1004.9
20260504210059 53 279 10.0 27.0 0.00 0.00 0.00 64 1004.8
20260504204606 53 170 9.0 19.0 0.00 0.00 0.00 66 1004.8
20260504203052 54 50 6.0 23.0 0.00 0.00 0.00 64 1004.9
20260504201550 57 251 6.0 18.0 0.00 0.00 0.00 49 1004.3
20260504194552 59 201 5.0 18.0 0.00 0.00 0.00 38 1003.5
20260504193054 59 279 6.0 22.0 0.00 0.00 0.00 37 1003.5
20260504191555 60 289 8.0 23.0 0.00 0.00 0.00 36 1003.5
20260504190057 60 269 9.0 21.0 0.00 0.00 0.00 37 1003.5
20260504184558 59 209 9.0 24.0 0.00 0.00 0.00 36 1003.5
20260504183059 58 278 12.0 30.0 0.00 0.00 0.00 35 1003.6
20260504181556 58 251 12.0 26.0 0.00 0.00 0.00 37 1003.5
20260504180057 57 260 12.0 28.0 0.00 0.00 0.00 42 1003.6
20260504174557 57 297 10.0 29.0 0.00 0.00 0.00 40 1003.7
20260504173101 56 220 12.0 31.0 0.00 0.00 0.00 41 1003.5
20260504171606 56 308 8.0 26.0 0.00 0.00 0.00 43 1003.5
20260504170106 55 230 10.0 26.0 0.00 0.00 0.00 43 1003.5
20260504081554 0 302 10.0 24.0 0.00 0.00 0.00 996.9
20260504044555 0 312 9.0 24.0 0.00 0.00 0.00 992.9
20260504043100 0 339 10.0 27.0 0.00 0.00 0.00 992.2
20260504041554 0 274 11.0 25.0 0.00 0.00 0.00 992.0
20260504040109 0 355 11.0 24.0 0.00 0.00 0.00 991.8
20260504034554 0 309 12.0 23.0 0.00 0.00 0.00 991.5
20260504033103 0 2 10.0 28.0 0.00 0.00 0.00 991.3
20260504031603 0 343 10.0 23.0 0.00 0.00 0.00 990.8
20260504030056 0 318 12.0 21.0 0.00 0.00 0.00 990.5
20260504024554 0 265 12.0 27.0 0.00 0.00 0.00 990.2
20260504023053 0 338 14.0 27.0 0.00 0.00 0.00 989.8
20260504021552 0 348 15.0 34.0 0.00 0.00 0.00 989.7
20260504020131 0 2 15.0 27.0 0.00 0.00 0.00 989.1
20260504014603 0 315 14.0 28.0 0.00 0.00 0.00 989.3
20260504013115 0 296 12.0 30.0 0.00 0.00 0.00 988.7
20260504011553 0 314 16.0 27.0 0.00 0.00 0.00 988.6
20260504010053 0 353 13.0 29.0 0.00 0.00 0.00 988.4
20260504004620 0 347 14.0 26.0 0.00 0.00 0.00 988.2
20260504003059 0 350 15.0 33.0 0.00 0.00 0.00 988.1